Flag for Germany Weather past 2 weeks in Kaufbeuren, Bavaria, Germany

Now
28 °F

Chilly.


Feels Like: 20 °F
Forecast: 31 / 38 °F
Wind: 9 mph from West

Location: Altenstadt Airport

Current Time: Mar 3, 2015 at 4:32:48 AM

Latest Report: Mar 3, 2015 at 3:20 AM


Visibility: N/A

Pressure: 30.15 "Hg

Humidity: 80%

Dew point: 23 °F

Location of KaufbeurenLocation

Historic Weather in Kaufbeuren — Graph

°F

Kaufbeuren temperature yesterday

Maximum temperature yesterday: 43 °F (at 12:20 AM)
Minimum temperature yesterday: 32 °F (at 1:20 PM)
Average temperature yesterday: 37 °F

Past Weeks' High & Low Weather Summary

 TemperatureHumidityPressure
High50 °F (Feb 20, 2:20 PM)100% (Feb 16, 2:20 AM)30.63 "Hg (Feb 16, 2:20 AM)
Low14 °F (Feb 16, 8:20 AM)28% (Feb 20, 2:20 PM)29.45 "Hg (Feb 21, 2:20 PM)
Average30 °F87%29.99 "Hg
* Reported Feb 16 2:20 AM — Mar 3 2:20 AM, Kaufbeuren, Weather by CustomWeather, © 2015

Note: Actual official high and low records may vary slightly from our data, if they occured in-between our weather recording intervals... More about our weather records

Advertising

Kaufbeuren weather history for previous 24 hours

 ConditionsComfort  
Time TempWeatherWind HumidityBarometerVisibility
2:20 AM
Tue, Mar 3
28 °FChilly.10 mph80%30.15 "HgN/A
1:20 AM30 °FChilly.15 mph80%30.15 "HgN/A
12:20 AM32 °FChilly.24 mph80%30.12 "HgN/A
11:20 PM
Mon, Mar 2
32 °FChilly.23 mph80%30.09 "HgN/A
10:20 PM34 °FChilly.26 mph75%30.04 "HgN/A
9:20 PM32 °FChilly.17 mph93%29.98 "HgN/A
8:51 PM32 °FPassing clouds.26 mph100%29.98 "HgN/A
8:20 PM36 °FThundershowers. Passing clouds.23 mph87%29.95 "HgN/A
7:20 PM36 °FPassing clouds.18 mph87%29.92 "HgN/A
6:20 PM34 °FPassing clouds.13 mph93%29.89 "HgN/A
5:20 PM32 °FSnow flurries. Broken clouds.16 mph100%29.86 "HgN/A
5:02 PM36 °FHeavy snow. Partly sunny.16 mph87%29.86 "Hg1 mi
4:20 PM37 °FScattered showers. Broken clouds.21 mph87%29.80 "HgN/A
3:20 PM36 °FScattered showers. Broken clouds.21 mph87%29.83 "HgN/A
2:20 PM34 °FSnow flurries. Partly sunny.14 mph93%29.83 "HgN/A
1:20 PM32 °FSnow. Ice fog.12 mph100%29.83 "Hg1 mi
12:54 PM34 °FLight snow. Fog.15 mph93%29.80 "Hg1 mi
12:20 PM34 °FLight snow. Fog.7 mph93%29.80 "Hg1 mi
12:03 PM34 °FLight rain. Fog.3 mph100%29.77 "Hg3 mi
11:20 AM34 °FLight rain. Fog.12 mph100%29.77 "Hg3 mi
11:03 AM36 °FLight rain. Fog.14 mph93%29.77 "Hg3 mi
10:20 AM36 °FRain showers. Partly sunny.20 mph100%29.74 "Hg2 mi
10:01 AM39 °FRain showers. Partly sunny.17 mph93%29.74 "Hg2 mi
9:20 AM39 °FLight rain. Broken clouds.15 mph93%29.71 "Hg4 mi
9:00 AM41 °FLight rain. Fog.21 mph93%29.68 "Hg3 mi
8:20 AM41 °FLight rain. Broken clouds.17 mph93%29.68 "HgN/A
7:20 AM41 °FLight rain. Partly sunny.15 mph93%29.68 "HgN/A
6:20 AM41 °FLight rain. Passing clouds.21 mph93%29.68 "HgN/A
5:20 AM43 °FPassing clouds.26 mph87%29.65 "HgN/A
4:20 AM39 °FChilly.13 mph93%29.65 "HgN/A
Weather by CustomWeather, © 2015

See weather overviewHow to use our weather pages